Year,Month,Day,Hour,Minute,Value (Times are PST for insolation in W/m^2)
2016,09,19,07,57,25.00
2016,09,19,07,58,25.00
2016,09,19,07,59,25.50
2016,09,19,08,00,27.30
2016,09,19,08,01,28.00
2016,09,19,08,02,28.00
2016,09,19,08,03,28.20
2016,09,19,08,04,32.00
2016,09,19,08,05,32.00
2016,09,19,08,06,32.00
2016,09,19,08,07,32.00
2016,09,19,08,08,32.00
2016,09,19,08,09,32.00
2016,09,19,08,10,32.00
2016,09,19,08,11,32.00
2016,09,19,08,12,30.00
2016,09,19,08,13,29.50
2016,09,19,08,14,28.00
2016,09,19,08,15,28.00
2016,09,19,08,16,28.00
2016,09,19,08,17,28.00
2016,09,19,08,18,26.50
2016,09,19,08,19,26.00
2016,09,19,08,20,26.00
2016,09,19,08,21,25.80
2016,09,19,08,22,25.00
2016,09,19,08,23,25.00
2016,09,19,08,24,25.00
2016,09,19,08,25,25.00
2016,09,19,08,26,25.00
2016,09,19,08,27,25.80
2016,09,19,08,28,26.00
2016,09,19,08,29,26.00
2016,09,19,08,30,26.40
2016,09,19,08,31,28.00
2016,09,19,08,32,28.80
2016,09,19,08,33,30.00
2016,09,19,08,34,30.00
2016,09,19,08,35,33.80
2016,09,19,08,36,38.40
2016,09,19,08,37,73.30
2016,09,19,08,38,70.60
2016,09,19,08,39,20.20
2016,09,19,08,40,12.00
2016,09,19,08,41,12.00
2016,09,19,08,42,11.40
2016,09,19,08,43,11.70
2016,09,19,08,44,12.00
2016,09,19,08,45,12.00
2016,09,19,08,46,14.00
2016,09,19,08,47,14.40
2016,09,19,08,48,16.00
2016,09,19,08,49,17.20
2016,09,19,08,50,17.50
2016,09,19,08,51,16.00
2016,09,19,08,52,14.50
2016,09,19,08,53,14.00
2016,09,19,08,54,12.20
2016,09,19,08,55,12.40
2016,09,19,08,56,28.60
2016,09,19,08,57,80.80
2016,09,19,08,58,84.90
2016,09,19,08,59,87.00
2016,09,19,09,00,89.90
2016,09,19,09,01,47.50
2016,09,19,09,02,75.90
2016,09,19,09,03,46.80
2016,09,19,09,04,87.70
2016,09,19,09,05,50.60
2016,09,19,09,06,79.80
2016,09,19,09,07,77.10
2016,09,19,09,08,33.40
2016,09,19,09,09,29.30
2016,09,19,09,10,77.80
2016,09,19,09,11,44.10
2016,09,19,09,12,37.00
2016,09,19,09,13,37.40
2016,09,19,09,14,53.00
2016,09,19,09,15,87.70
2016,09,19,09,16,97.00
2016,09,19,09,17,97.00
2016,09,19,09,18,97.00
2016,09,19,09,19,91.40
2016,09,19,09,20,89.70
2016,09,19,09,21,84.30
2016,09,19,09,22,86.00
2016,09,19,09,23,83.60
2016,09,19,09,24,79.00
2016,09,19,09,25,81.80
2016,09,19,09,26,84.00
2016,09,19,09,27,81.60
2016,09,19,09,28,82.80
2016,09,19,09,29,81.80
2016,09,19,09,30,59.40
2016,09,19,09,31,46.90
2016,09,19,09,32,43.60
2016,09,19,09,33,45.00
2016,09,19,09,34,45.80
2016,09,19,09,35,47.00
2016,09,19,09,36,47.00
2016,09,19,09,37,51.30
2016,09,19,09,38,61.00
2016,09,19,09,39,64.80
2016,09,19,09,40,60.60
2016,09,19,09,41,69.90
2016,09,19,09,42,76.00
2016,09,19,09,43,74.60
2016,09,19,09,44,70.10
2016,09,19,09,45,79.20
2016,09,19,09,46,81.20
2016,09,19,09,47,62.80
2016,09,19,09,48,50.50
2016,09,19,09,49,49.00
2016,09,19,09,50,49.00
2016,09,19,09,51,47.80
2016,09,19,09,52,51.90
2016,09,19,09,53,48.00
2016,09,19,09,54,46.00
2016,09,19,09,55,47.70
2016,09,19,09,56,56.20
2016,09,19,09,57,64.30
2016,09,19,09,58,63.00
2016,09,19,09,59,62.50
2016,09,19,10,00,62.00
2016,09,19,10,01,60.50
2016,09,19,10,02,58.30
2016,09,19,10,03,57.90
2016,09,19,10,04,55.70
2016,09,19,10,05,53.80
2016,09,19,10,06,53.00
2016,09,19,10,07,52.10
2016,09,19,10,08,52.10
2016,09,19,10,09,53.00
2016,09,19,10,10,53.80
2016,09,19,10,11,54.00
2016,09,19,10,12,56.00
2016,09,19,10,13,58.00
2016,09,19,10,14,58.60
2016,09,19,10,15,60.00
2016,09,19,10,16,60.00
2016,09,19,10,17,58.80
2016,09,19,10,18,59.40
2016,09,19,10,19,58.30
2016,09,19,10,20,56.20
2016,09,19,10,21,56.00
2016,09,19,10,22,57.90
2016,09,19,10,23,66.20
2016,09,19,10,24,69.00
2016,09,19,10,25,65.70
2016,09,19,10,26,63.00
2016,09,19,10,27,63.00
2016,09,19,10,28,62.20
2016,09,19,10,29,56.20
2016,09,19,10,30,53.80
2016,09,19,10,31,56.20
2016,09,19,10,32,72.30
2016,09,19,10,33,69.50
2016,09,19,10,34,48.80
2016,09,19,10,35,62.90
2016,09,19,10,36,56.20
2016,09,19,10,37,46.70
2016,09,19,10,38,64.20
2016,09,19,10,39,92.60
2016,09,19,10,40,127.90
2016,09,19,10,41,101.70
2016,09,19,10,42,77.40
2016,09,19,10,43,56.90
2016,09,19,10,44,40.00
2016,09,19,10,45,39.20
2016,09,19,10,46,39.00
2016,09,19,10,47,39.80
2016,09,19,10,48,39.00
2016,09,19,10,49,37.50
2016,09,19,10,50,36.80
2016,09,19,10,51,40.70
2016,09,19,10,52,42.00
2016,09,19,10,53,36.40
2016,09,19,10,54,32.30
2016,09,19,10,55,51.80
2016,09,19,10,56,110.60
2016,09,19,10,57,109.60
2016,09,19,10,58,111.00
2016,09,19,10,59,112.00
2016,09,19,11,00,113.00
2016,09,19,11,01,113.00
2016,09,19,11,02,111.30
2016,09,19,11,03,111.00
2016,09,19,11,04,103.60
2016,09,19,11,05,99.50
2016,09,19,11,06,97.70
2016,09,19,11,07,97.40
2016,09,19,11,08,99.10
2016,09,19,11,09,100.00
2016,09,19,11,10,101.50
2016,09,19,11,11,103.70
2016,09,19,11,12,103.80
2016,09,19,11,13,102.40
2016,09,19,11,14,104.80
2016,09,19,11,15,109.40
2016,09,19,11,16,116.60
2016,09,19,11,17,125.20
2016,09,19,11,18,132.60
2016,09,19,11,19,79.00
2016,09,19,11,20,62.30
2016,09,19,11,21,98.80
2016,09,19,11,22,118.50
2016,09,19,11,23,112.40
2016,09,19,11,24,108.40
2016,09,19,11,25,104.50
2016,09,19,11,26,102.70
2016,09,19,11,27,100.50
2016,09,19,11,28,100.00
2016,09,19,11,29,100.10
2016,09,19,11,30,102.30
2016,09,19,11,31,104.20
2016,09,19,11,32,105.00
2016,09,19,11,33,105.00
2016,09,19,11,34,104.40
2016,09,19,11,35,102.70
2016,09,19,11,36,102.00
2016,09,19,11,37,103.70
2016,09,19,11,38,103.30
2016,09,19,11,39,98.00
2016,09,19,11,40,101.40
2016,09,19,11,41,84.80
2016,09,19,11,42,83.10
2016,09,19,11,43,103.20
2016,09,19,11,44,106.10
2016,09,19,11,45,107.00
2016,09,19,11,46,104.10
2016,09,19,11,47,101.70
2016,09,19,11,48,99.40
2016,09,19,11,49,97.00
2016,09,19,11,50,94.30
2016,09,19,11,51,72.80
2016,09,19,11,52,85.80
2016,09,19,11,53,99.00
2016,09,19,11,54,40.20
2016,09,19,11,55,98.40
2016,09,19,11,56,101.60
2016,09,19,11,57,100.00
2016,09,19,11,58,98.80
2016,09,19,11,59,97.00
2016,09,19,12,00,95.90
2016,09,19,12,01,95.00
2016,09,19,12,02,93.40
2016,09,19,12,03,93.00
2016,09,19,12,04,93.00
2016,09,19,12,05,93.00
2016,09,19,12,06,93.00
2016,09,19,12,07,93.90
2016,09,19,12,08,96.10
2016,09,19,12,09,97.00
2016,09,19,12,10,97.00
2016,09,19,12,11,97.00
2016,09,19,12,12,97.00
2016,09,19,12,13,97.00
2016,09,19,12,14,97.00
2016,09,19,12,15,97.00
2016,09,19,12,16,97.00
2016,09,19,12,17,97.00
2016,09,19,12,18,95.70
2016,09,19,12,19,95.00
2016,09,19,12,20,95.00
2016,09,19,12,21,95.00
2016,09,19,12,22,95.40
2016,09,19,12,23,96.40
2016,09,19,12,24,95.80
2016,09,19,12,25,97.50
2016,09,19,12,26,100.40
2016,09,19,12,27,103.50
2016,09,19,12,28,81.60
2016,09,19,12,29,67.40
2016,09,19,12,30,41.80
2016,09,19,12,31,39.80
2016,09,19,12,32,42.50
2016,09,19,12,33,54.80
2016,09,19,12,34,82.00
2016,09,19,12,35,100.00
2016,09,19,12,36,101.50
2016,09,19,12,37,102.00
2016,09,19,12,38,91.30
2016,09,19,12,39,61.20
2016,09,19,12,40,102.60
2016,09,19,12,41,105.10
2016,09,19,12,42,107.00
2016,09,19,12,43,82.20
2016,09,19,12,44,85.10
2016,09,19,12,45,109.40
2016,09,19,12,46,105.80
2016,09,19,12,47,81.00
2016,09,19,12,48,58.50
2016,09,19,12,49,72.00
2016,09,19,12,50,74.80
2016,09,19,12,51,107.00
2016,09,19,12,52,112.80
2016,09,19,12,53,87.50
2016,09,19,12,54,84.00
2016,09,19,12,55,92.00
2016,09,19,12,56,124.80
2016,09,19,12,57,165.60
2016,09,19,12,58,148.10
2016,09,19,12,59,107.00
2016,09,19,13,00,110.30
2016,09,19,13,01,113.70
2016,09,19,13,02,111.60
2016,09,19,13,03,111.00
2016,09,19,13,04,114.20
2016,09,19,13,05,118.60
2016,09,19,13,06,122.20
2016,09,19,13,07,125.80
2016,09,19,13,08,124.00
2016,09,19,13,09,110.90
2016,09,19,13,10,104.30
2016,09,19,13,11,104.80
2016,09,19,13,12,111.10
2016,09,19,13,13,118.00
2016,09,19,13,14,140.80
2016,09,19,13,15,209.00
2016,09,19,13,16,149.10
2016,09,19,13,17,71.10
2016,09,19,13,18,62.50
2016,09,19,13,19,54.50
2016,09,19,13,20,47.90
2016,09,19,13,21,44.20
2016,09,19,13,22,44.00
2016,09,19,13,23,44.60
2016,09,19,13,24,47.20
2016,09,19,13,25,51.40
2016,09,19,13,26,58.40
2016,09,19,13,27,65.50
2016,09,19,13,28,71.00
2016,09,19,13,29,75.60
2016,09,19,13,30,76.00
2016,09,19,13,31,76.20
2016,09,19,13,32,78.30
2016,09,19,13,33,81.00
2016,09,19,13,34,81.00
2016,09,19,13,35,82.30
2016,09,19,13,36,85.10
2016,09,19,13,37,87.70
2016,09,19,13,38,89.90
2016,09,19,13,39,91.90
2016,09,19,13,40,99.10
2016,09,19,13,41,106.60
2016,09,19,13,42,129.50
2016,09,19,13,43,148.00
2016,09,19,13,44,257.20
2016,09,19,13,45,316.00
2016,09,19,13,46,165.70
2016,09,19,13,47,99.30
2016,09,19,13,48,97.20
2016,09,19,13,49,114.00
2016,09,19,13,50,114.00
2016,09,19,13,51,114.00
2016,09,19,13,52,168.00
2016,09,19,13,53,211.40
2016,09,19,13,54,214.00
2016,09,19,13,55,462.40
2016,09,19,13,56,443.40
2016,09,19,13,57,168.50
2016,09,19,13,58,139.70
2016,09,19,13,59,136.90
2016,09,19,14,00,132.00
2016,09,19,14,01,132.00
2016,09,19,14,02,150.00
2016,09,19,14,03,169.60
2016,09,19,14,04,122.80
2016,09,19,14,05,102.20
2016,09,19,14,06,90.70
2016,09,19,14,07,94.00
2016,09,19,14,08,107.60
2016,09,19,14,09,117.20
2016,09,19,14,10,142.50
2016,09,19,14,11,216.20
2016,09,19,14,12,232.00
2016,09,19,14,13,260.70
2016,09,19,14,14,516.80
2016,09,19,14,15,507.20
2016,09,19,14,16,500.20
2016,09,19,14,17,499.00
2016,09,19,14,18,504.90
2016,09,19,14,19,520.60
2016,09,19,14,20,537.60
2016,09,19,14,21,540.80
2016,09,19,14,22,538.30
2016,09,19,14,23,540.80
2016,09,19,14,24,545.80
2016,09,19,14,25,548.60
2016,09,19,14,26,539.80
2016,09,19,14,27,528.40
2016,09,19,14,28,526.80
2016,09,19,14,29,528.80
2016,09,19,14,30,527.00
2016,09,19,14,31,527.00
2016,09,19,14,32,527.00
2016,09,19,14,33,527.80
2016,09,19,14,34,530.00
2016,09,19,14,35,529.70
2016,09,19,14,36,529.00
2016,09,19,14,37,527.40
2016,09,19,14,38,524.30
2016,09,19,14,39,526.80
2016,09,19,14,40,526.20
2016,09,19,14,41,527.70
2016,09,19,14,42,529.90
2016,09,19,14,43,541.50
2016,09,19,14,44,550.00
2016,09,19,14,45,553.80
2016,09,19,14,46,564.30
2016,09,19,14,47,578.10
2016,09,19,14,48,585.80
2016,09,19,14,49,590.50
2016,09,19,14,50,596.00
2016,09,19,14,51,601.00
2016,09,19,14,52,604.90
2016,09,19,14,53,606.00
2016,09,19,14,54,613.20
2016,09,19,14,55,620.70
2016,09,19,14,56,622.40
2016,09,19,14,57,626.40
2016,09,19,14,58,628.30
2016,09,19,14,59,631.40
2016,09,19,15,00,640.50
2016,09,19,15,01,645.00
2016,09,19,15,02,645.00
2016,09,19,15,03,645.00
2016,09,19,15,04,645.50
2016,09,19,15,05,655.00
2016,09,19,15,06,661.80
2016,09,19,15,07,665.60
2016,09,19,15,08,672.30
2016,09,19,15,09,680.80
2016,09,19,15,10,685.40
2016,09,19,15,11,682.80
2016,09,19,15,12,682.00
2016,09,19,15,13,692.20
2016,09,19,15,14,703.00
2016,09,19,15,15,703.00
2016,09,19,15,16,495.00
2016,09,19,15,17,219.50
2016,09,19,15,18,230.00
2016,09,19,15,19,230.00
2016,09,19,15,20,606.80
2016,09,19,15,21,701.00
2016,09,19,15,22,643.20
2016,09,19,15,23,316.00
2016,09,19,15,24,316.00
2016,09,19,15,25,316.00
2016,09,19,15,26,264.90
2016,09,19,15,27,223.00
2016,09,19,15,28,223.00
2016,09,19,15,29,228.90
2016,09,19,15,30,230.00
2016,09,19,15,31,344.00
2016,09,19,15,32,800.00
2016,09,19,15,33,757.20
2016,09,19,15,34,734.20
2016,09,19,15,35,778.20
2016,09,19,15,36,779.10
2016,09,19,15,37,786.40
2016,09,19,15,38,788.00
2016,09,19,15,39,788.00
2016,09,19,15,40,788.00
2016,09,19,15,41,790.80
2016,09,19,15,42,792.80
2016,09,19,15,43,788.50
2016,09,19,15,44,744.50
2016,09,19,15,45,776.50
2016,09,19,15,46,827.30
2016,09,19,15,47,833.00
2016,09,19,15,48,753.40
2016,09,19,15,49,415.00
2016,09,19,15,50,329.60
2016,09,19,15,51,170.00
2016,09,19,15,52,159.40
2016,09,19,15,53,148.20
2016,09,19,15,54,143.00
2016,09,19,15,55,139.30
2016,09,19,15,56,134.70
2016,09,19,15,57,130.60
2016,09,19,15,58,121.70
2016,09,19,15,59,111.20
2016,09,19,16,00,103.50
2016,09,19,16,01,97.00
2016,09,19,16,02,91.30
2016,09,19,16,03,86.80
2016,09,19,16,04,85.90
2016,09,19,16,05,84.30
2016,09,19,16,06,87.80
2016,09,19,16,07,93.00
2016,09,19,16,08,102.40
2016,09,19,16,09,116.20
2016,09,19,16,10,118.00
2016,09,19,16,11,115.00
2016,09,19,16,12,109.50
2016,09,19,16,13,106.90
2016,09,19,16,14,103.20
2016,09,19,16,15,99.10
2016,09,19,16,16,94.50
2016,09,19,16,17,91.00
2016,09,19,16,18,91.00
2016,09,19,16,19,100.10
2016,09,19,16,20,108.00
2016,09,19,16,21,110.80
2016,09,19,16,22,122.50
2016,09,19,16,23,117.60
2016,09,19,16,24,116.70
2016,09,19,16,25,123.60
2016,09,19,16,26,139.00
2016,09,19,16,27,142.80
2016,09,19,16,28,134.20
2016,09,19,16,29,143.90
2016,09,19,16,30,136.70
2016,09,19,16,31,132.30
2016,09,19,16,32,132.30
2016,09,19,16,33,126.20
2016,09,19,16,34,123.00
2016,09,19,16,35,121.80
2016,09,19,16,36,117.50
2016,09,19,16,37,116.00
2016,09,19,16,38,105.20
2016,09,19,16,39,94.10
2016,09,19,16,40,85.40
2016,09,19,16,41,83.30
2016,09,19,16,42,83.60
2016,09,19,16,43,80.00
2016,09,19,16,44,72.80
2016,09,19,16,45,69.20
2016,09,19,16,46,65.60
2016,09,19,16,47,60.30
2016,09,19,16,48,55.20
2016,09,19,16,49,50.00
2016,09,19,16,50,45.40
2016,09,19,16,51,42.00
2016,09,19,16,52,42.00
2016,09,19,16,53,42.00
2016,09,19,16,54,47.20
2016,09,19,16,55,55.00
2016,09,19,16,56,56.00
2016,09,19,16,57,56.00
2016,09,19,16,58,55.40
2016,09,19,16,59,54.80
2016,09,19,17,00,57.00
2016,09,19,17,01,58.00
2016,09,19,17,02,58.00
2016,09,19,17,03,56.40
2016,09,19,17,04,53.30
2016,09,19,17,05,47.20
2016,09,19,17,06,50.00
2016,09,19,17,07,53.30
2016,09,19,17,08,53.50
2016,09,19,17,09,50.80
2016,09,19,17,10,49.00
2016,09,19,17,11,50.50
2016,09,19,17,12,52.70
2016,09,19,17,13,56.20
2016,09,19,17,14,60.80
2016,09,19,17,15,65.50
2016,09,19,17,16,68.10
2016,09,19,17,17,71.00
2016,09,19,17,18,74.40
2016,09,19,17,19,76.00
2016,09,19,17,20,72.80
2016,09,19,17,21,67.50
2016,09,19,17,22,61.60
2016,09,19,17,23,57.00
2016,09,19,17,24,52.40
2016,09,19,17,25,51.00
2016,09,19,17,26,51.00
2016,09,19,17,27,51.00
2016,09,19,17,28,52.50
2016,09,19,17,29,55.40
2016,09,19,17,30,59.70
2016,09,19,17,31,62.00
2016,09,19,17,32,62.30
2016,09,19,17,33,63.70
2016,09,19,17,34,65.80
2016,09,19,17,35,68.70
2016,09,19,17,36,71.30
2016,09,19,17,37,72.00
2016,09,19,17,38,72.00
2016,09,19,17,39,72.00
2016,09,19,17,40,70.60
2016,09,19,17,41,64.10
2016,09,19,17,42,62.00
2016,09,19,17,43,63.50
2016,09,19,17,44,66.20
2016,09,19,17,45,65.60
2016,09,19,17,46,66.70
2016,09,19,17,47,67.00
2016,09,19,17,48,66.40
2016,09,19,17,49,62.40
2016,09,19,17,50,58.80
2016,09,19,17,51,54.70
2016,09,19,17,52,53.00
2016,09,19,17,53,53.00
2016,09,19,17,54,51.50
2016,09,19,17,55,51.00
2016,09,19,17,56,53.20
2016,09,19,17,57,56.60
2016,09,19,17,58,60.00
2016,09,19,17,59,59.30
2016,09,19,18,00,56.10
2016,09,19,18,01,52.20
2016,09,19,18,02,49.60
2016,09,19,18,03,47.40
2016,09,19,18,04,42.50
2016,09,19,18,05,38.80
2016,09,19,18,06,37.40
2016,09,19,18,07,39.30
2016,09,19,18,08,40.00
2016,09,19,18,09,41.00
2016,09,19,18,10,40.80
2016,09,19,18,11,37.80
2016,09,19,18,12,33.80
2016,09,19,18,13,32.00
2016,09,19,18,14,30.40
2016,09,19,18,15,32.00
2016,09,19,18,16,33.00
2016,09,19,18,17,34.10
2016,09,19,18,18,33.00
2016,09,19,18,19,33.00
2016,09,19,18,20,34.50
2016,09,19,18,21,38.60
2016,09,19,18,22,39.00
2016,09,19,18,23,38.60
2016,09,19,18,24,35.70
2016,09,19,18,25,32.60
2016,09,19,18,26,30.00
2016,09,19,18,27,26.80
2016,09,19,18,28,25.30
2016,09,19,18,29,23.40
2016,09,19,18,30,21.10
2016,09,19,18,31,18.90
2016,09,19,18,32,18.00
2016,09,19,18,33,18.00
2016,09,19,18,34,18.00
2016,09,19,18,35,18.00
2016,09,19,18,36,16.70
2016,09,19,18,37,14.50
2016,09,19,18,38,14.00
2016,09,19,18,39,12.10
2016,09,19,18,40,12.00
2016,09,19,18,41,12.00
2016,09,19,18,42,12.00
2016,09,19,18,43,12.00
2016,09,19,18,44,13.20
2016,09,19,18,45,14.00
2016,09,19,18,46,12.40
2016,09,19,18,47,12.00
2016,09,19,18,48,11.90
2016,09,19,18,49,11.00
2016,09,19,18,50,10.40
2016,09,19,18,51,8.20
2016,09,19,18,52,7.00
2016,09,19,18,53,5.80
2016,09,19,18,54,5.00
2016,09,19,18,55,5.00
2016,09,19,18,56,5.00
2016,09,19,18,57,4.20
2016,09,19,18,58,0.00
2016,09,19,18,59,0.00
2016,09,19,19,00,0.00
2016,09,19,19,01,0.00
2016,09,19,19,02,0.00
2016,09,19,19,03,0.00
2016,09,19,19,04,0.00
2016,09,19,19,05,0.00
2016,09,19,19,06,0.00
2016,09,19,19,07,0.00
2016,09,19,19,08,0.00
2016,09,19,19,09,0.00
2016,09,19,19,10,0.00
2016,09,19,19,11,0.00
2016,09,19,19,12,0.00
2016,09,19,19,13,0.00
2016,09,19,19,14,0.00
2016,09,19,19,15,0.00
2016,09,19,19,16,0.00
2016,09,19,19,17,0.00
2016,09,19,19,18,0.00
2016,09,19,19,19,0.00
2016,09,19,19,20,0.00
2016,09,19,19,21,0.00
2016,09,19,19,22,0.00
2016,09,19,19,23,0.00
2016,09,19,19,24,0.00
2016,09,19,19,25,0.00
2016,09,19,19,26,0.00
2016,09,19,19,27,0.00
2016,09,19,19,28,0.00
2016,09,19,19,29,0.00
2016,09,19,19,30,0.00
2016,09,19,19,31,0.00
2016,09,19,19,32,0.00
2016,09,19,19,33,0.00
2016,09,19,19,34,0.00
2016,09,19,19,35,0.00
2016,09,19,19,36,0.00
2016,09,19,19,37,0.00
2016,09,19,19,38,0.00
2016,09,19,19,39,0.00
2016,09,19,19,40,0.00
2016,09,19,19,41,0.00
2016,09,19,19,42,0.00
2016,09,19,19,43,0.00
2016,09,19,19,44,0.00
2016,09,19,19,45,0.00
2016,09,19,19,46,0.00
2016,09,19,19,47,0.00
2016,09,19,19,48,0.00
2016,09,19,19,49,0.00
2016,09,19,19,50,0.00
2016,09,19,19,51,0.00
2016,09,19,19,52,0.00
2016,09,19,19,53,0.00
2016,09,19,19,54,0.00
2016,09,19,19,55,0.00
2016,09,19,19,56,0.00
2016,09,19,19,57,0.00
2016,09,19,19,58,0.00
2016,09,19,19,59,0.00
2016,09,19,20,00,0.00
2016,09,19,20,01,0.00
2016,09,19,20,02,0.00
2016,09,19,20,03,0.00
2016,09,19,20,04,0.00
2016,09,19,20,05,0.00
2016,09,19,20,06,0.00
2016,09,19,20,07,0.00
2016,09,19,20,08,0.00
2016,09,19,20,09,0.00
2016,09,19,20,10,0.00
2016,09,19,20,11,0.00
2016,09,19,20,12,0.00
2016,09,19,20,13,0.00
2016,09,19,20,14,0.00
2016,09,19,20,15,0.00
2016,09,19,20,16,0.00
2016,09,19,20,17,0.00
2016,09,19,20,18,0.00
2016,09,19,20,19,0.00
2016,09,19,20,20,0.00
2016,09,19,20,21,0.00
2016,09,19,20,22,0.00
2016,09,19,20,23,0.00
2016,09,19,20,24,0.00
2016,09,19,20,25,0.00
2016,09,19,20,26,0.00
2016,09,19,20,27,0.00
2016,09,19,20,28,0.00
2016,09,19,20,29,0.00
2016,09,19,20,30,0.00
2016,09,19,20,31,0.00
2016,09,19,20,32,0.00
2016,09,19,20,33,0.00
2016,09,19,20,34,0.00
2016,09,19,20,35,0.00
2016,09,19,20,36,0.00
2016,09,19,20,37,0.00
2016,09,19,20,38,0.00
2016,09,19,20,39,0.00
2016,09,19,20,40,0.00
2016,09,19,20,41,0.00
2016,09,19,20,42,0.00
2016,09,19,20,43,0.00
2016,09,19,20,44,0.00
2016,09,19,20,45,0.00
2016,09,19,20,46,0.00
2016,09,19,20,47,0.00
2016,09,19,20,48,0.00
2016,09,19,20,49,0.00
2016,09,19,20,50,0.00
2016,09,19,20,51,0.00
2016,09,19,20,52,0.00
2016,09,19,20,53,0.00
2016,09,19,20,54,0.00
2016,09,19,20,55,0.00
2016,09,19,20,56,0.00
2016,09,19,20,57,0.00
2016,09,19,20,58,0.00
2016,09,19,20,59,0.00
2016,09,19,21,00,0.00
2016,09,19,21,01,0.00
2016,09,19,21,02,0.00
2016,09,19,21,03,0.00
2016,09,19,21,04,0.00
2016,09,19,21,05,0.00
2016,09,19,21,06,0.00
2016,09,19,21,07,0.00
2016,09,19,21,08,0.00
2016,09,19,21,09,0.00
2016,09,19,21,10,0.00
2016,09,19,21,11,0.00
2016,09,19,21,12,0.00
2016,09,19,21,13,0.00
2016,09,19,21,14,0.00
2016,09,19,21,15,0.00
2016,09,19,21,16,0.00
2016,09,19,21,17,0.00
2016,09,19,21,18,0.00
2016,09,19,21,19,0.00
2016,09,19,21,20,0.00
2016,09,19,21,21,0.00
2016,09,19,21,22,0.00
2016,09,19,21,23,0.00
2016,09,19,21,24,0.00
2016,09,19,21,25,0.00
2016,09,19,21,26,0.00
2016,09,19,21,27,0.00
2016,09,19,21,28,0.00
2016,09,19,21,29,0.00
2016,09,19,21,30,0.00
2016,09,19,21,31,0.00
2016,09,19,21,32,0.00
2016,09,19,21,33,0.00
2016,09,19,21,34,0.00
2016,09,19,21,35,0.00
2016,09,19,21,36,0.00
2016,09,19,21,37,0.00
2016,09,19,21,38,0.00
2016,09,19,21,39,0.00
2016,09,19,21,40,0.00
2016,09,19,21,41,0.00
2016,09,19,21,42,0.00
2016,09,19,21,43,0.00
2016,09,19,21,44,0.00
2016,09,19,21,45,0.00
2016,09,19,21,46,0.00
2016,09,19,21,47,0.00
2016,09,19,21,48,0.00
2016,09,19,21,49,0.00
2016,09,19,21,50,0.00
2016,09,19,21,51,0.00
2016,09,19,21,52,0.00
2016,09,19,21,53,0.00
2016,09,19,21,54,0.00
2016,09,19,21,55,0.00
2016,09,19,21,56,0.00
2016,09,19,21,57,0.00
2016,09,19,21,58,0.00
2016,09,19,21,59,0.00
2016,09,19,22,00,0.00
2016,09,19,22,01,0.00
2016,09,19,22,02,0.00
2016,09,19,22,03,0.00
2016,09,19,22,04,0.00
2016,09,19,22,05,0.00
2016,09,19,22,06,0.00
2016,09,19,22,07,0.00
2016,09,19,22,08,0.00
2016,09,19,22,09,0.00
2016,09,19,22,10,0.00
2016,09,19,22,11,0.00
2016,09,19,22,12,0.00
2016,09,19,22,13,0.00
2016,09,19,22,14,0.00
2016,09,19,22,15,0.00
2016,09,19,22,16,0.00
2016,09,19,22,17,0.00
2016,09,19,22,18,0.00
2016,09,19,22,19,0.00
2016,09,19,22,20,0.00
2016,09,19,22,21,0.00
2016,09,19,22,22,0.00
2016,09,19,22,23,0.00
